New York JFK, NY

9:26 AM EDT on October 19, 2018 (GMT -0400)
Kennedy International

Weather History for KJFK - January, 2018

Change the Weather History Date:

Saturday, January 13, 2018

  Actual Average Record
Temperature  
Mean Temperature 37 °F 32 °F  
Max Temperature 53 °F 39 °F 58 °F (2017)
Min Temperature 20 °F 26 °F 8 °F (1981)
Degree Days  
Heating Degree Days 28 33  
Month to date heating degree days 514 415  
Since 1 July heating degree days 2123 2084  
Cooling Degree Days 0 0  
Month to date cooling degree days 0 0  
Year to date cooling degree days 0 0  
Moisture  
Dew Point 28 °F    
Average Humidity 74    
Maximum Humidity 100    
Minimum Humidity 47    
Precipitation  
Precipitation 0.08 in 0.10 in 1.20 in (1964)
Month to date precipitation 1.04 1.38  
Year to date precipitation 1.04 1.38  
Snow  
Snow 0.00 in 0.20 in 13.00 in (1964)
Month to date snowfall 8.0 2.6  
Since 1 July snowfall 14.7 7.5  
Snow Depth 0.00 in    
Sea Level Pressure  
Sea Level Pressure 29.82 in    
Wind  
Wind Speed 21 mph (WNW)    
Max Wind Speed 33 mph    
Max Gust Speed 40 mph    
Visibility 8 miles    
Events Fog , Rain    
T = Trace of Precipitation, MM = Missing Value Source: NWS Daily Summary

Daily Weather History Graph

Daily Weather History Graph

Search for Another Location

Airport or City:

Astronomy

Jan. 13, 2018 Rise Set
Actual Time 7:17 AM EST 4:50 PM EST
Civil Twilight 6:47 AM EST 5:20 PM EST
Nautical Twilight 6:13 AM EST 5:54 PM EST
Astronomical Twilight 5:40 AM EST 6:27 PM EST
Moon 4:17 AM EST (1/13) 2:24 PM EST (1/13)
Length of Visible Light 10h 33m
Length of Day
9h 32m
Waning Crescent, 10% of the Moon is Illuminated
Jan 13
Waning Crescent
Jan 16
New
Jan 24
First Quarter
Jan 31
Full
Feb 7
Last Quarter

Hourly Weather History & Observations

Time (EST) Temp. Windchill Dew Point Humidity Pressure Visibility Wind Dir Wind Speed Gust Speed Precip Events Conditions
12:51 AM 50.0 °F - 50.0 °F 100% 29.53 in 0.1 mi South 20.7 mph - 0.02 in Fog Fog
1:51 AM 48.9 °F - 48.9 °F 100% 29.50 in 0.1 mi South 16.1 mph - 0.00 in Fog , Rain Light Rain
2:51 AM 48.9 °F - 48.9 °F 100% 29.44 in 0.1 mi South 15.0 mph - 0.00 in Fog , Rain Light Rain
3:51 AM 50.0 °F - 50.0 °F 100% 29.33 in 0.1 mi SE 16.1 mph - 0.05 in Fog , Rain Light Rain
4:51 AM 48.9 °F - 48.9 °F 100% 29.36 in 0.1 mi South 29.9 mph 38.0 mph 0.01 in Fog Fog
5:38 AM 45.0 °F 36.0 °F 45.0 °F 100% 29.39 in 0.1 mi South 25.3 mph 32.2 mph N/A Fog Fog
5:51 AM 45.0 °F 36.2 °F 45.0 °F 100% 29.41 in 0.1 mi South 24.2 mph - N/A Fog Fog
6:37 AM 45.0 °F 36.6 °F 45.0 °F 100% 29.47 in 3.0 mi South 21.9 mph - N/A   Mostly Cloudy
6:51 AM 45.0 °F 37.6 °F 45.0 °F 100% 29.49 in 9.0 mi WNW 17.3 mph 31.1 mph N/A   Overcast
6:58 AM 46.0 °F 39.0 °F 46.0 °F 100% 29.51 in 10.0 mi NW 17.3 mph - N/A   Overcast
7:05 AM 46.0 °F 38.5 °F 46.0 °F 100% 29.52 in 10.0 mi NW 19.6 mph - N/A   Overcast
7:14 AM 46.0 °F 38.5 °F 45.0 °F 96% 29.55 in 10.0 mi WNW 19.6 mph 24.2 mph N/A   Overcast
7:51 AM 41.0 °F 30.7 °F 39.0 °F 93% 29.62 in 10.0 mi WNW 25.3 mph 29.9 mph N/A   Overcast
8:03 AM 39.9 °F 30.0 °F 36.0 °F 86% 29.65 in 10.0 mi WNW 21.9 mph 33.4 mph N/A   Overcast
8:51 AM 34.0 °F 23.4 °F 28.0 °F 79% 29.74 in 10.0 mi WNW 17.3 mph 27.6 mph N/A   Mostly Cloudy
9:20 AM 32.0 °F 20.1 °F 24.1 °F 73% 29.76 in 10.0 mi WNW 19.6 mph 27.6 mph N/A   Mostly Cloudy
9:51 AM 30.9 °F 16.9 °F 21.0 °F 67% 29.80 in 10.0 mi WNW 26.5 mph - N/A   Mostly Cloudy
10:51 AM 30.9 °F 17.2 °F 18.0 °F 59% 29.86 in 10.0 mi NW 25.3 mph 31.1 mph N/A   Mostly Cloudy
11:19 AM 30.0 °F 16.9 °F 18.0 °F 61% 29.87 in 10.0 mi NW 21.9 mph - N/A   Mostly Cloudy
11:29 AM 32.0 °F 21.2 °F 19.0 °F 59% 29.87 in 10.0 mi NW 16.1 mph 26.5 mph N/A   Scattered Clouds
11:51 AM 32.0 °F 19.2 °F 19.0 °F 59% 29.88 in 10.0 mi NNW 23.0 mph 31.1 mph N/A   Scattered Clouds
12:51 PM 34.0 °F 22.7 °F 19.9 °F 56% 29.92 in 10.0 mi NW 19.6 mph 24.2 mph N/A   Scattered Clouds
1:51 PM 35.1 °F 26.4 °F 19.0 °F 52% 29.96 in 10.0 mi NNW 12.7 mph 23.0 mph N/A   Scattered Clouds
2:51 PM 34.0 °F 23.4 °F 18.0 °F 52% 30.01 in 10.0 mi NW 17.3 mph - N/A   Partly Cloudy
3:51 PM 33.1 °F 21.5 °F 17.1 °F 52% 30.06 in 10.0 mi NW 19.6 mph - N/A   Partly Cloudy
4:51 PM 30.0 °F 16.6 °F 15.1 °F 54% 30.11 in 10.0 mi NW 23.0 mph 31.1 mph N/A   Partly Cloudy
5:51 PM 27.0 °F 13.9 °F 12.9 °F 56% 30.17 in 10.0 mi NW 18.4 mph 27.6 mph N/A   Partly Cloudy
6:51 PM 26.1 °F 11.3 °F 12.0 °F 55% 30.22 in 10.0 mi NW 23.0 mph - N/A   Partly Cloudy
7:51 PM 24.1 °F 8.0 °F 10.0 °F 55% 30.26 in 10.0 mi NW 25.3 mph - N/A   Clear
8:51 PM 23.0 °F 8.7 °F 8.1 °F 53% 30.30 in 10.0 mi NNW 18.4 mph 27.6 mph N/A   Clear
9:51 PM 21.9 °F 6.2 °F 5.0 °F 48% 30.33 in 10.0 mi North 21.9 mph 31.1 mph N/A   Clear
10:51 PM 21.0 °F 5.4 °F 5.0 °F 50% 30.37 in 10.0 mi NW 20.7 mph - N/A   Clear
11:51 PM 19.9 °F 4.8 °F 3.0 °F 48% 30.40 in 10.0 mi NNW 18.4 mph - N/A   Clear